Regional Weather Roundup
Issued by NWS

Home | Current Version | Previous Version | Text Only | Print | Product List | Glossary Off
Versions: 1 2 3 4 5 6 7 8 9 10 11 12 13 14 15 16 17 18 19 20 21 22 23 24 25 26 27

000
ASUS45 KSLC 162310
RWRUT

UTAH REGIONAL WEATHER ROUNDUP
NATIONAL WEATHER SERVICE SALT LAKE CITY UT
500 PM MDT WED AUG 16 2017

UTZ001>011-023>025-170000-

NORTHERN UTAH

CITY           SKY/WX    TMP DP  RH WIND       PRES   REMARKS
BRIGHAM CITY   MOSUNNY   85  27  12 S7        30.04F
DUGWAY         PTSUNNY   85  31  14 N9        30.02S
HILL AFB       SUNNY     83  35  17 W7        30.07F
LOGAN          MOSUNNY   84  36  18 W7        30.04F
OGDEN          MOSUNNY   85  37  18 MISG      30.04F
SALT LAKE CITY PTSUNNY   89  35  14 N8        30.02F
TOOELE VALLEY  MOSUNNY   86  41  20 N14       30.04S
WENDOVER       PTSUNNY   85  35  16 SE7       30.03S
HEBER CITY     PTSUNNY   79  36  21 W5        30.12S
WEST JORDAN    MOSUNNY   84  50  31 NW5       30.06F

$$

UTZ011>015-024>027-170000-

CENTRAL/NORTHEAST UTAH

CITY           SKY/WX    TMP DP  RH WIND       PRES   REMARKS
PROVO AIRPORT  PTSUNNY   82  42  24 W6        30.06S
MOAB/CANYONLAN SUNNY     87  23   9 SW12      30.01S
DELTA          MOSUNNY   84  32  15 NW9       30.05F
PRICE          PTSUNNY   80  33  18 CALM      30.12S
RICHFIELD      SUNNY     81  36  19 S12       30.11F
ROOSEVELT      SUNNY     81  37  21 NE13G22   30.12S
VERNAL         SUNNY     77  41  27 NW14      30.11F

$$

UTZ013>016-019>022-027-170000-

SOUTHERN UTAH

CITY           SKY/WX    TMP DP  RH WIND       PRES   REMARKS
BRYCE CANYON   CLOUDY    70  33  25 NW18      30.26F
CEDAR CITY     PTSUNNY   82  37  20 W7        30.09F
MILFORD        PTSUNNY   87  31  13 NW12G17   30.05S
ST GEORGE      MOCLDY    95  35  12 W10       29.91F HX  90
HANKSVILLE     PTSUNNY   90  30  12 W7        30.03F
KANAB          SUNNY     88  28  11 SW9       30.10F
BLANDING       SUNNY     83  28  13 SW5       30.19F

$$

REGIONAL REPORTS     COLORADO/ARIZONA

CITY           SKY/WX    TMP DP  RH WIND       PRES   REMARKS
CRAIG, CO      MOSUNNY   79  29  16 W10       30.17S
GRAND JUNCTION SUNNY     87  31  13 W13       30.04S
RIFLE, CO      MOSUNNY   83  39  21 N10       30.10S
MONTROSE, CO   MOSUNNY   81  36  19 N8        30.12F
CORTEZ, CO     SUNNY     83  21  10 VRB6      30.14S
COLORADO CITY    N/A     90  32  12 NE3       30.09S
PAGE, AZ       SUNNY     90  28  11 MISG      30.01F
GRAND CANYON   MOSUNNY   77  31  18 W14G21    30.22F
KINGMAN, AZ    SUNNY     91  40  16 W10       29.98F
FLAGSTAFF, AZ  SUNNY     72  34  24 SW10G16   30.26S

$$

REGIONAL REPORTS    NEVADA/IDAHO/WYOMING

CITY           SKY/WX    TMP DP  RH WIND       PRES   REMARKS
LAS VEGAS, NV  MOSUNNY   97  38  13 E8        29.87F HX  92
ELY, NY        LGT RAIN  64  45  49 W18       30.24R
ELKO, NV       MOSUNNY   84  36  18 SW13      30.06F
POCATELLO, ID  MOSUNNY   86  34  15 W17       30.04F
BURLEY, ID     SUNNY     83  38  20 W6        30.01F
FORT BRIDGER,    N/A     74  33  22 NW14G23   30.24S
EVANSTON, WY   CLOUDY    71  35  26 MISG      30.22S
ROCK SPRINGS,  SUNNY     75  30  19 SW9G18    30.18F
KEMMERER, WY     N/A     72  28  20 W16G23    30.22S

$$




USA.gov is the U.S. government's official web portal to all federal, state and local government web resources and services.